Location: St Paul
(33.4390°N, 83.7350°W)
Time: 03:35:46
(UTC-04:00)

Meteor 1-21 Rocket - Pass Details

Date: 06 October 2017
Orbit: 833 x 908 km, 81.2° (Epoch: 17 October)

Event Time Altitude Azimuth Distance (km) Brightness Sun altitude
Rises 19:41:52 0° 358° (N) 3,422 7.4 -7.0°
Reaches altitude 10° 19:44:23 10° 3° (N) 2,473 6.6 -7.5°
Maximum altitude 19:49:49 51° 79° (E) 1,044 4.3 -8.6°
Drops below altitude 10° 19:55:09 10° 155° (SSE) 2,433 6.4 -9.8°
Sets 19:57:36 0° 160° (SSE) 3,362 7.1 -10.3°
